COSMOS 1867 COOLANT

Satellite information

Favourite Embed

Satellite Type and Status

DEBRISIN ORBIT

Key statistics

Satellite COSMOS 1867 COOLANT at a glance.

Uptime

14036

Days in orbit

Revolutions

≈ 14.3

Per day

Orbit

LEO

Low Earth Orbit

Inclination

65.0

Latest

Satellite identification and parameters

Extended collection of information and parameters for COSMOS 1867 COOLANT.

Object identification

Identified? True

Debris? False

Object name: COSMOS 1867 COOLANT

International designator: 1987-060S

Object number (NORAD): 39655

Object ID (CCSDS): 39655

Country: COMMONWEALTH OF INDEPENDENT STATES (CIS)

Current information (Y/N): Y

RCS size: SMALL

Orbital parameters

Period: 100.447 minutes

Inclination: 65.0035 deg

SMA: 7157.908 km

Apoapsis: 789.814 km

Periapsis: 769.731 km

RAAN: 182.2955 deg

Eccentricy: 0.0014029

Argument of periapsis: 269.9773 deg

Mean anomaly: 89.9705 deg

Mean motion: 14.33585594 rev/day

Mean motion (dot): 0.00000451 rev/day2

B* drag term: 0.00019858 1/REarth

Two-line elements (TLE)

Creation date: Dec. 10, 2025, 3:06 p.m.

Reference frame: TEME

Reference center: EARTH

Epoch: Dec. 10, 2025, 6:48 a.m. UTC

TLE line 0: 0 COSMOS 1867 COOLANT

TLE line 1: 1 39655U 87060S 25344.28397582 .00000451 00000-0 19858-3 0 9995

TLE line 2: 2 39655 65.0035 182.2955 0014029 269.9773 89.9705 14.33585594609527

Live tracking on map

Real-time ground track for satellite COSMOS 1867 COOLANT.

In-orbit conjunctions

A list of the most updated potential collisions computed for object COSMOS 1867 COOLANT.

Target Orbit TCA Probability of collision Miss distance Type
DELTA 1 DEB SSO 2025-07-21 12:24:17 0.0001344891 116.0 (m) DEBRIS
FENGYUN 1C DEB SSO 2024-11-10 04:27:53 0.0009134942 381.0 (m) DEBRIS
COSMOS 1275 DEB LEO 2024-10-24 13:58:57 0.0001083612 127.0 (m) DEBRIS

Associated space launch

Nuclear-powered magnetospheric research satellite

COSMOS 1867 COOLANT was lifted into orbit during the mission ‘Tsiklon-2 | Plasma-A 2’, on board a Tsiklon-2 space rocket.

The launch took place on July 10, 1987, 3:35 p.m. from 90.

For more information about the launch, click the button.

Launch to space Tsiklon-2 | Plasma-A 2
Tsiklon-2 | Plasma-A 2

Agency: N/A

Status: Launch Successful

Launch date: July 10, 1987, 3:35 p.m. UTC

Rocket: Tsiklon-2

Launch pad: 90

Location: Baikonur Cosmodrome, Republic of Kazakhstan

...

Latest news about this satellite

There are no fresh news available about this satellite. Check back as we update our databases every day.


Newsletter sign-up

Weekly statistics, charts and insights to help you stay on top of the space industry.